EW7070 Weather Reports


time (UTC)temp
C
wind
direction
speed
KPH
gust
KPH
rain 1hr
cm
rain 24hr
cm
rain mn
cm
humidity
%
barometer
mb
20200803145539 23 246 0.0 0.0 0.00 0.03 0.03 65 1025.5
20200803145027 23 242 0.0 0.0 0.00 0.03 0.03 65 1025.5
20200803144526 22 242 0.0 0.0 0.00 0.03 0.03 66 1025.7
20200803143934 22 215 0.0 0.0 0.00 0.03 0.03 69 1025.7
20200803143412 22 213 0.0 0.0 0.00 0.03 0.03 69 1025.7
20200803142905 22 213 0.0 0.0 0.00 0.03 0.03 71 1026.0
20200803142342 21 213 0.0 0.0 0.00 0.03 0.03 70 1025.9
20200803141834 21 203 0.0 0.0 0.00 0.03 0.03 72 1025.9
20200803141309 21 203 0.0 0.0 0.00 0.03 0.03 74 1026.1
20200803140740 21 203 0.0 0.0 0.00 0.03 0.03 74 1026.1
20200803140240 20 203 0.0 0.0 0.00 0.03 0.03 74 1026.1
20200803135717 20 203 0.0 0.0 0.00 0.03 0.03 75 1026.4
20200803135207 20 203 0.0 0.0 0.00 0.03 0.03 77 1026.4
20200803134638 20 203 0.0 0.0 0.00 0.03 0.03 77 1026.4
20200803134111 20 203 0.0 0.0 0.00 0.03 0.03 81 1026.5
20200803133552 19 203 0.0 0.0 0.00 0.03 0.03 87 1026.5
20200803133029 18 203 0.0 0.0 0.00 0.03 0.03 89 1026.5
20200803132513 18 203 0.0 0.0 0.00 0.03 0.03 92 1026.5
20200803131956 18 203 0.0 0.0 0.00 0.03 0.03 96 1026.5
20200803131446 17 203 0.0 0.0 0.00 0.03 0.03 99 1026.5
20200803130925 17 203 0.0 0.0 0.00 0.03 0.03 99 1026.4
20200803130426 16 203 0.0 0.0 0.00 0.03 0.03 100 1026.4
20200803125856 16 203 0.0 0.0 0.00 0.03 0.03 100 1026.3
20200803125357 16 204 0.0 0.0 0.00 0.03 0.03 100 1026.3
20200803124842 15 204 0.0 0.0 0.00 0.03 0.03 100 1026.3
20200803124326 15 204 0.0 0.0 0.00 0.03 0.03 100 1026.2
20200803123805 15 204 0.0 0.0 0.00 0.03 0.03 100 1026.2
20200803123301 15 204 0.0 0.0 0.00 0.03 0.03 100 1026.2
20200803122741 14 204 0.0 0.0 0.00 0.03 0.03 100 1026.3
20200803122216 14 204 0.0 0.0 0.00 0.03 0.03 100 1026.3
20200803121649 13 204 0.0 0.0 0.00 0.03 0.03 99 1026.3
20200803121115 13 204 0.0 0.0 0.00 0.03 0.03 100 1025.9
20200803120534 13 204 0.0 0.0 0.00 0.03 0.03 100 1025.9
20200803120001 13 204 0.0 0.0 0.00 0.03 0.03 100 1025.7
20200803115441 13 204 0.0 0.0 0.00 0.03 0.03 100 1025.7
20200803114914 12 204 0.0 0.0 0.00 0.03 0.03 100 1025.7
20200803114356 12 204 0.0 0.0 0.00 0.03 0.03 100 1025.5
20200803113853 12 204 0.0 0.0 0.00 0.03 0.03 100 1025.5
20200803113334 11 204 0.0 0.0 0.00 0.03 0.03 100 1025.5
20200803112820 11 204 0.0 0.0 0.00 0.03 0.03 99 1025.4
20200803112254 11 204 0.0 0.0 0.00 0.03 0.03 99 1025.4
20200803111735 10 204 0.0 0.0 0.00 0.03 0.03 99 1025.4
20200803111145 10 204 0.0 0.0 0.00 0.03 0.03 99 1025.4
20200803110626 10 204 0.0 0.0 0.00 0.03 0.03 99 1025.4
20200803110101 9 204 0.0 0.0 0.00 0.03 0.03 99 1025.4
20200803105601 9 204 0.0 0.0 0.00 0.03 0.03 99 1025.3
20200803105026 9 204 0.0 0.0 0.00 0.03 0.03 99 1025.3
20200803104512 9 204 0.0 0.0 0.00 0.03 0.03 99 1025.3
20200803103959 9 204 0.0 0.0 0.00 0.03 0.03 99 1025.2
20200803103458 9 204 0.0 0.0 0.00 0.03 0.03 99 1025.2
20200803102933 9 204 0.0 0.0 0.00 0.03 0.03 99 1025.0
20200803102418 9 204 0.0 0.0 0.00 0.03 0.03 99 1025.0
20200803101914 9 204 0.0 0.0 0.00 0.03 0.03 99 1025.0
20200803101415 9 204 0.0 0.0 0.00 0.03 0.03 98 1025.0
20200803100831 9 204 0.0 0.0 0.00 0.03 0.03 99 1025.0
20200803100301 9 204 0.0 0.0 0.00 0.03 0.03 99 1025.0
20200803095722 9 204 0.0 0.0 0.00 0.03 0.03 98 1024.9
20200803095154 9 204 0.0 0.0 0.00 0.03 0.03 99 1024.9
20200803094630 9 204 0.0 0.0 0.00 0.03 0.03 99 1024.9
20200803094055 9 204 0.0 0.0 0.00 0.03 0.03 98 1024.8
20200803093520 9 204 0.0 0.0 0.00 0.03 0.03 98 1024.8
20200803092942 9 204 0.0 0.0 0.03 0.03 0.03 98 1024.7
20200803092409 9 204 0.0 0.0 0.03 0.03 0.03 99 1024.7
20200803091819 10 204 0.0 0.0 0.03 0.03 0.03 99 1024.7
20200803091306 10 204 0.0 0.0 0.03 0.03 0.03 99 1024.6
20200803090723 9 204 0.0 0.0 0.03 0.03 0.03 99 1024.6
20200803090155 9 204 0.0 0.0 0.03 0.03 0.03 98 1024.6
20200803085623 9 204 0.0 0.0 0.03 0.03 0.03 98 1024.6
20200803085043 10 204 0.0 0.0 0.03 0.05 0.03 98 1024.6
20200803084504 10 204 0.0 0.0 0.03 0.05 0.03 99 1024.6
20200803083937 10 204 0.0 0.0 0.03 0.05 0.03 98 1024.3
20200803083349 9 204 0.0 0.0 0.03 0.05 0.03 98 1024.3
20200803082809 10 204 0.0 0.0 0.00 0.03 0.00 98 1024.2
20200803082302 10 204 0.0 0.0 0.00 0.03 0.00 98 1024.2
20200803081729 10 204 0.0 0.0 0.00 0.03 0.00 98 1024.2
20200803081218 9 204 0.0 0.0 0.00 0.03 0.00 98 1024.2
20200803080640 10 204 0.0 0.0 0.00 0.03 0.00 98 1024.2
20200803080105 10 204 0.0 0.0 0.00 0.03 0.00 98 1024.2
20200803075537 10 204 0.0 0.0 0.00 0.03 0.00 98 1024.1
20200803075001 10 204 0.0 0.0 0.00 0.03 0.00 98 1024.1
20200803074456 10 204 0.0 0.0 0.00 0.03 0.00 98 1024.0
20200803073956 10 204 0.0 0.0 0.00 0.03 0.00 98 1024.0
20200803073417 10 204 0.0 0.0 0.00 0.03 0.00 98 1024.0
20200803072909 10 204 0.0 0.0 0.00 0.03 0.00 98 1023.9
20200803072333 10 204 0.0 0.0 0.00 0.03 0.00 98 1023.9
20200803071800 10 204 0.0 0.0 0.00 0.03 0.00 98 1023.9
20200803071223 10 204 0.0 0.0 0.00 0.03 0.00 98 1023.8
20200803070654 10 204 0.0 0.0 0.00 0.03 0.00 98 1023.8
20200803070127 10 204 0.0 0.0 0.00 0.03 0.00 98 1023.8
20200803065601 10 204 0.0 0.0 0.00 0.03 0.00 98 1023.8
20200803065032 10 204 0.0 0.0 0.00 0.03 0.00 98 1023.8
20200803064455 10 204 0.0 0.0 0.00 0.03 0.00 98 1023.8
20200803063929 10 204 0.0 0.0 0.00 0.03 0.00 98 1023.8
20200803063350 10 204 0.0 0.0 0.00 0.03 0.00 98 1023.8
20200803062820 10 204 0.0 0.0 0.00 0.03 0.00 98 1023.9
20200803062253 10 204 0.0 0.0 0.00 0.03 0.00 98 1023.9
20200803061720 10 204 0.0 0.0 0.00 0.03 0.00 98 1023.9
20200803061149 10 204 0.0 0.0 0.00 0.03 0.00 98 1023.9
20200803060611 10 204 0.0 0.0 0.00 0.03 0.00 98 1023.9
20200803060107 10 204 0.0 0.0 0.00 0.03 0.00 98 1023.9
20200803055603 10 204 0.0 0.0 0.00 0.03 0.00 98 1023.9
20200803055027 10 204 0.0 0.0 0.00 0.03 0.00 98 1023.9
20200803054457 10 204 0.0 0.0 0.00 0.03 0.00 98 1023.9
20200803053930 10 204 0.0 0.0 0.00 0.03 0.00 98 1023.9
20200803053353 11 204 0.0 0.0 0.00 0.03 0.00 98 1023.9
20200803052828 11 204 0.0 0.0 0.00 0.03 0.00 98 1024.0
20200803052314 11 204 0.0 0.0 0.00 0.03 0.00 98 1024.0
20200803051812 11 204 0.0 0.0 0.00 0.03 0.00 98 1024.0
20200803051313 11 204 0.0 0.0 0.00 0.03 0.00 98 1024.1
20200803050723 11 204 0.0 0.0 0.00 0.03 0.00 97 1024.1
20200803050205 11 204 0.0 0.0 0.00 0.03 0.00 98 1024.1
20200803045641 11 204 0.0 0.0 0.00 0.03 0.00 98 1024.1
20200803045053 11 204 0.0 0.0 0.00 0.03 0.00 98 1024.1
20200803044504 11 204 0.0 0.0 0.00 0.03 0.00 98 1024.1
20200803043941 11 204 0.0 0.0 0.00 0.03 0.00 98 1024.2
20200803043404 11 204 0.0 0.0 0.00 0.03 0.00 98 1024.2
20200803042819 11 204 0.0 0.0 0.00 0.03 0.00 97 1024.2
20200803042253 11 204 0.0 0.0 0.00 0.03 0.00 97 1024.2
20200803041733 11 204 0.0 0.0 0.00 0.03 0.00 97 1024.2
20200803041234 11 204 0.0 0.0 0.00 0.03 0.00 98 1024.2
20200803040659 11 204 0.0 0.0 0.00 0.03 0.00 98 1024.2
20200803040124 11 204 0.0 0.0 0.00 0.03 0.00 97 1024.2
20200803035601 11 204 0.0 0.0 0.00 0.03 0.00 97 1024.2
20200803035044 11 204 0.0 0.0 0.00 0.03 0.00 97 1024.2
20200803034532 11 204 0.0 0.0 0.00 0.03 0.00 97 1024.1
20200803033935 11 204 0.0 0.0 0.00 0.03 0.00 97 1024.1
20200803033414 11 204 0.0 0.0 0.00 0.03 0.00 97 1024.1
20200803032914 11 204 0.0 0.0 0.00 0.03 0.00 97 1024.0
20200803032321 11 204 0.0 0.0 0.00 0.03 0.00 97 1024.0
20200803031745 12 204 0.0 0.0 0.00 0.03 0.00 97 1024.0
20200803031156 12 204 0.0 0.0 0.00 0.03 0.00 97 1023.9
20200803030613 12 204 0.0 0.0 0.00 0.03 0.00 97 1023.9
20200803030021 12 204 0.0 0.0 0.00 0.03 0.00 97 1023.9
20200803025500 12 204 0.0 0.0 0.00 0.03 0.03 97 1023.9
20200803024911 12 204 0.0 0.0 0.00 0.03 0.03 97 1023.9
20200803024321 12 204 0.0 0.0 0.00 0.03 0.03 97 1023.9
20200803023808 12 204 0.0 0.0 0.00 0.03 0.03 97 1023.9
20200803023259 12 204 0.0 0.0 0.00 0.03 0.03 97 1023.9
20200803022719 12 204 0.0 0.0 0.00 0.03 0.03 97 1023.9
20200803022144 12 204 0.0 0.0 0.00 0.03 0.03 96 1023.9
20200803021610 12 204 0.0 0.0 0.00 0.03 0.03 96 1023.9
20200803021019 12 204 0.0 0.0 0.00 0.03 0.03 96 1023.9
20200803020504 12 204 0.0 0.0 0.00 0.03 0.03 96 1023.9
20200803015956 13 204 0.0 0.0 0.00 0.03 0.03 96 1023.8
20200803015414 13 204 0.0 0.0 0.00 0.03 0.03 96 1023.8
20200803014827 13 204 0.0 0.0 0.00 0.03 0.03 96 1023.8
20200803014257 13 204 0.0 0.0 0.00 0.03 0.03 96 1023.8
20200803013705 13 204 0.0 0.0 0.00 0.03 0.03 96 1023.8
20200803013159 13 204 0.0 0.0 0.00 0.03 0.03 96 1023.8
20200803012703 13 204 0.0 0.0 0.00 0.03 0.03 96 1023.6
20200803012112 13 204 0.0 0.0 0.00 0.03 0.03 96 1023.6
20200803011529 13 204 0.0 0.0 0.00 0.03 0.03 97 1023.4
20200803010945 13 204 0.0 0.0 0.00 0.03 0.03 96 1023.4
20200803010410 14 204 0.0 0.0 0.00 0.03 0.03 96 1023.4
20200803005825 14 204 0.0 0.0 0.00 0.03 0.03 96 1023.3
20200803005304 14 204 0.0 0.0 0.00 0.03 0.03 96 1023.3
20200803004730 15 204 0.0 0.0 0.00 0.03 0.03 97 1023.3
20200803004156 15 204 0.0 0.0 0.00 0.03 0.03 97 1023.3
20200803003621 15 204 0.0 0.0 0.00 0.03 0.03 97 1023.3
20200803003053 14 204 0.0 0.0 0.00 0.03 0.03 96 1023.3
20200803002518 14 204 0.0 0.0 0.00 0.03 0.03 96 1023.3
20200803001945 14 204 0.0 0.0 0.00 0.03 0.03 96 1023.3
20200803001417 14 204 0.0 0.0 0.00 0.03 0.03 96 1023.2
20200803000842 15 204 0.0 0.0 0.00 0.03 0.03 96 1023.2
20200803000315 14 204 0.0 0.0 0.00 0.03 0.03 95 1023.2
20200802235749 15 204 0.0 0.0 0.00 0.03 0.03 95 1023.3
20200802235217 15 204 0.0 0.0 0.00 0.03 0.03 95 1023.3
20200802234645 15 204 0.0 0.0 0.00 0.03 0.03 94 1023.3
20200802234117 15 204 0.0 0.0 0.00 0.03 0.03 94 1023.3
20200802233537 15 204 0.0 0.0 0.00 0.03 0.03 94 1023.3
20200802233006 15 204 0.0 0.0 0.00 0.03 0.03 94 1023.3
20200802232453 15 204 0.0 0.0 0.00 0.03 0.03 94 1023.0
20200802231920 15 204 0.0 0.0 0.00 0.03 0.03 93 1023.0
20200802231413 15 204 0.0 0.0 0.00 0.03 0.03 93 1023.0
20200802230831 16 204 0.0 0.0 0.00 0.03 0.03 93 1023.0
20200802230313 16 204 0.0 0.0 0.00 0.03 0.03 92 1023.0
20200802225734 16 204 0.0 0.0 0.00 0.03 0.03 92 1022.9
20200802225203 16 204 0.0 0.0 0.00 0.03 0.03 93 1022.9
20200802224626 16 204 0.0 0.0 0.00 0.03 0.03 92 1022.9
20200802224121 16 204 0.0 0.0 0.00 0.03 0.03 92 1022.8
20200802223618 16 204 0.0 0.0 0.00 0.03 0.03 92 1022.8
20200802223047 17 204 0.0 0.0 0.00 0.03 0.03 90 1022.8
20200802222538 17 204 0.0 0.0 0.00 0.03 0.03 90 1022.6
20200802222029 17 204 0.0 0.0 0.00 0.03 0.03 90 1022.6
20200802221523 17 204 0.0 0.0 0.00 0.03 0.03 91 1022.6
20200802220957 17 204 0.0 0.0 0.00 0.03 0.03 92 1022.5
20200802220416 17 204 0.0 0.0 0.00 0.03 0.03 92 1022.5
20200802215853 18 204 0.0 0.0 0.00 0.03 0.03 91 1022.5
20200802215315 18 204 0.0 0.0 0.00 0.03 0.03 91 1022.5
20200802214801 18 204 0.0 0.0 0.00 0.03 0.03 91 1022.5
20200802214256 18 204 0.0 0.0 0.00 0.03 0.03 91 1022.4
20200802213737 18 204 0.0 0.0 0.00 0.03 0.03 89 1022.4
20200802213235 19 204 0.0 0.0 0.00 0.03 0.03 87 1022.4
20200802212734 19 204 0.0 0.0 0.00 0.03 0.03 88 1022.4
20200802212228 20 204 0.0 0.0 0.00 0.03 0.03 86 1022.4
20200802211657 20 204 0.0 0.0 0.00 0.03 0.03 85 1022.4
20200802211156 20 204 0.0 0.0 0.00 0.03 0.03 86 1022.3
20200802210622 20 204 0.0 0.0 0.00 0.03 0.03 84 1022.3
20200802210103 21 204 0.0 0.0 0.00 0.03 0.03 85 1022.4
20200802205558 21 204 0.0 0.0 0.00 0.03 0.03 84 1022.3
20200802205009 21 204 0.0 0.0 0.00 0.03 0.03 83 1022.3
20200802204417 21 204 0.0 0.0 0.00 0.03 0.03 82 1022.3
20200802203843 22 204 0.0 0.0 0.00 0.03 0.03 81 1022.3
20200802203325 22 204 0.0 0.0 0.00 0.03 0.03 79 1022.3
20200802202755 22 204 0.0 0.0 0.00 0.03 0.03 79 1022.1
20200802202249 23 204 0.0 0.0 0.00 0.03 0.03 76 1022.1
20200802201727 23 204 0.0 4.8 0.00 0.03 0.03 75 1022.1
20200802201225 23 204 1.6 6.4 0.00 0.03 0.03 72 1022.0
20200802200700 25 204 1.6 6.4 0.00 0.03 0.03 71 1022.0
20200802200156 25 204 0.0 3.2 0.00 0.03 0.03 69 1022.1
20200802195623 26 204 0.0 0.0 0.00 0.03 0.03 68 1022.1
20200802195059 26 204 0.0 3.2 0.00 0.03 0.03 66 1022.1
20200802194553 26 204 0.0 3.2 0.00 0.03 0.03 66 1022.1
20200802194046 26 204 0.0 3.2 0.00 0.03 0.03 65 1022.1
20200802193552 27 204 0.0 3.2 0.00 0.03 0.03 63 1022.1
20200802193023 27 204 3.2 8.0 0.00 0.03 0.03 62 1022.1
20200802192520 28 204 1.6 8.0 0.00 0.03 0.03 58 1022.0
20200802191957 28 204 0.0 8.0 0.00 0.03 0.03 56 1022.0
20200802191449 28 204 0.0 1.6 0.00 0.03 0.03 57 1022.1
20200802190920 28 204 0.0 0.0 0.00 0.03 0.03 52 1022.1
20200802190357 28 204 0.0 0.0 0.00 0.03 0.03 59 1022.1
20200802185851 28 204 0.0 0.0 0.00 0.03 0.03 54 1022.0
20200802185328 28 204 0.0 0.0 0.00 0.03 0.03 54 1022.0
20200802184820 28 204 0.0 3.2 0.00 0.03 0.03 53 1022.0
20200802184259 28 204 0.0 3.2 0.00 0.03 0.03 53 1022.1
20200802183751 28 204 0.0 3.2 0.00 0.03 0.03 52 1022.1
20200802183223 28 204 0.0 0.0 0.00 0.03 0.03 54 1022.1
20200802182656 27 204 0.0 6.4 0.00 0.03 0.03 53 1022.1
20200802182155 27 204 0.0 6.4 0.00 0.03 0.03 54 1022.1
20200802181625 27 204 0.0 3.2 0.00 0.03 0.03 54 1022.1
20200802181101 27 204 0.0 3.2 0.00 0.03 0.03 53 1022.2
20200802180532 27 204 0.0 3.2 0.00 0.03 0.03 54 1022.2
20200802180032 27 208 0.0 1.6 0.00 0.03 0.03 53 1022.3
20200802175500 27 208 1.6 6.4 0.00 0.03 0.03 54 1022.3
20200802175001 27 208 1.6 8.0 0.00 0.03 0.03 55 1022.3
20200802174504 27 208 1.6 8.0 0.00 0.03 0.03 53 1022.4
20200802173947 27 208 1.6 8.0 0.00 0.03 0.03 54 1022.4
20200802173442 27 208 1.6 12.9 0.00 0.03 0.03 58 1022.4
20200802172916 27 208 3.2 12.9 0.00 0.03 0.03 55 1022.5
20200802172359 26 208 1.6 8.0 0.00 0.03 0.03 55 1022.5
20200802171900 26 208 1.6 12.9 0.00 0.03 0.03 56 1022.5
20200802171348 26 208 1.6 12.9 0.00 0.03 0.03 57 1022.5
20200802170839 26 225 1.6 6.4 0.00 0.03 0.03 56 1022.5
20200802170314 26 225 1.6 8.0 0.00 0.03 0.03 55 1022.5
20200802165806 26 226 1.6 8.0 0.00 0.03 0.03 56 1022.6
20200802165304 26 226 3.2 16.1 0.00 0.03 0.03 59 1022.6
20200802164758 26 227 3.2 16.1 0.00 0.03 0.03 58 1022.6
20200802164243 26 227 1.6 9.7 0.00 0.03 0.03 57 1022.7
20200802163743 26 227 1.6 9.7 0.00 0.03 0.03 58 1022.7
20200802163243 26 229 0.0 8.0 0.00 0.03 0.03 57 1022.7
20200802162730 26 229 0.0 1.6 0.00 0.03 0.03 59 1023.0
20200802162224 25 229 0.0 1.6 0.00 0.03 0.03 61 1023.0
20200802161714 25 229 0.0 8.0 0.00 0.03 0.03 63 1022.9
20200802161208 25 229 1.6 8.0 0.00 0.03 0.03 60 1023.2
20200802160648 25 229 1.6 8.0 0.00 0.03 0.03 60 1023.2
20200802160151 24 229 1.6 8.0 0.00 0.03 0.03 62 1023.2
20200802155623 24 229 1.6 8.0 0.00 0.03 0.03 62 1023.4
20200802155121 24 229 0.0 0.0 0.00 0.03 0.03 61 1023.4
20200802154624 24 229 0.0 0.0 0.00 0.03 0.03 63 1023.4
20200802154046 24 229 0.0 0.0 0.00 0.03 0.03 64 1023.6
20200802153521 24 229 0.0 0.0 0.00 0.03 0.03 64 1023.6
20200802152943 23 229 0.0 0.0 0.00 0.03 0.03 64 1024.0
20200802152434 23 229 0.0 0.0 0.00 0.03 0.03 65 1024.0
20200802151900 23 229 0.0 0.0 0.00 0.03 0.03 64 1024.0
20200802151322 23 229 0.0 0.0 0.00 0.03 0.03 64 1024.1
20200802150754 23 229 0.0 0.0 0.00 0.03 0.03 66 1024.1
20200802150228 22 229 0.0 0.0 0.00 0.03 0.03 66 1024.1
20200802145655 22 229 0.0 0.0 0.00 0.03 0.03 66 1024.4